カタログに戻る

STARLINK-3580

運用中通信VLEO
NORAD 51781·PAYLOAD·🇺🇸 United States

打ち上げ Feb 25, 2022 から Vandenberg Space Force Base

Loading…

次のパス (今後24時間)

TLE

最新Source: CelesTrak SupGP

元期: Sep 14, 2026, 21:03 UTC

1 51781C 22017P   26257.87756944 -.00043717  00000+0 -12504-2 0  2570
2 51781  53.1574 198.2373 0001194 102.6974  11.7940 15.35429478    17

AllMySatでSTARLINK-3580をリアルタイム追跡

Download on the App Store